Weather History for Dubuque, IA

Change the Weather History Date:

Tuesday, January 14, 2014

  Actual Average Record
Temperature  
Mean Temperature 24 °F 19 °F  
Max Temperature 34 °F 26 °F 53 °F (1928)
Min Temperature 14 °F 11 °F -22 °F (1881)
Degree Days  
Heating Degree Days 41 46  
Month to date heating degree days 753 644  
Since 1 July heating degree days 3878 3454  
Cooling Degree Days 0 0  
Month to date cooling degree days 0 0  
Year to date cooling degree days 0 0  
Moisture  
Dew Point 21 °F    
Average Humidity 87    
Maximum Humidity 100    
Minimum Humidity 73    
Precipitation  
Precipitation 0.08 in 0.03 in 0.95 in (1960)
Month to date precipitation 0.20 0.53  
Year to date precipitation 0.20 0.53  
Snow  
Snow 0.90 in 0.30 in - ()
Month to date snowfall 1.8 4.5  
Since 1 July snowfall 24.1 19.1  
Snow Depth 4.00 in    
Sea Level Pressure  
Sea Level Pressure 29.73 in    
Wind  
Wind Speed 21 mph (West)    
Max Wind Speed 37 mph    
Max Gust Speed 47 mph    
Visibility 6 miles    
Events Fog , Snow    
T = Trace of Precipitation, MM = Missing Value Source: NWS Daily Summary

Daily Weather History Graph

Daily Weather History Graph

Search for Another Location

Airport:

Trip Planner

Search our weather history database for the weather conditions in past years. The results will help you decide how hot, cold, wet, or windy it might be!

Date:

Astronomy

Jan. 14, 2014 Rise Set
Actual Time 7:29 AM CST 4:54 PM CST
Civil Twilight 6:58 AM CST 5:25 PM CST
Nautical Twilight 6:24 AM CST 6:00 PM CST
Astronomical Twilight 5:50 AM CST 6:33 PM CST
Moon 4:00 PM CST (1/14) 6:04 AM CST (1/14)
Length of Visible Light 10h 26m
Length of Day
9h 24m
Waxing Gibbous, 98% of the Moon is Illuminated
Jan 14
Waxing Gibbous
Jan 15
Full
Jan 23
Last Quarter
Jan 30
New
Feb 6
First Quarter

Hourly Weather History & Observations

Time (CST) Temp. Windchill Dew Point Humidity Pressure Visibility Wind Dir Wind Speed Gust Speed Precip Events Conditions
12:53 AM 27.0 °F 16.1 °F 24.1 °F 89% 29.69 in 9.0 mi South 12.7 mph - N/A   Overcast
1:53 AM 27.0 °F 18.0 °F 25.0 °F 92% 29.67 in 9.0 mi South 9.2 mph - N/A   Overcast
2:53 AM 27.0 °F 15.2 °F 24.1 °F 89% 29.63 in 9.0 mi South 15.0 mph - N/A   Clear
3:53 AM 28.9 °F 17.7 °F 26.1 °F 89% 29.58 in 10.0 mi South 15.0 mph - N/A   Partly Cloudy
4:53 AM 30.0 °F 18.3 °F 26.1 °F 85% 29.55 in 10.0 mi South 17.3 mph - N/A   Overcast
5:53 AM 30.9 °F 18.4 °F 28.0 °F 89% 29.55 in 2.0 mi SSW 20.7 mph 28.8 mph 0.00 in Snow Light Snow
5:56 AM 30.9 °F 18.7 °F 28.0 °F 89% 29.51 in 1.5 mi SSW 19.6 mph 28.8 mph 0.00 in Snow Light Snow
5:58 AM 30.9 °F 18.7 °F 28.0 °F 89% 29.51 in 1.2 mi SSW 19.6 mph 28.8 mph 0.00 in Snow Snow
6:14 AM 30.0 °F 19.5 °F 30.0 °F 100% 29.51 in 0.5 mi SW 13.8 mph 24.2 mph 0.02 in Fog , Snow Snow
6:21 AM 30.0 °F 17.9 °F 30.0 °F 100% 29.51 in 1.8 mi SW 18.4 mph 24.2 mph 0.03 in Snow Light Snow
6:53 AM 30.9 °F 20.2 °F 30.9 °F 100% 29.55 in 0.8 mi SW 15.0 mph - 0.05 in Snow Light Snow
7:08 AM 30.9 °F 19.4 °F 30.9 °F 100% 29.51 in 1.0 mi WSW 17.3 mph - 0.01 in Snow Light Snow
7:41 AM 33.1 °F 21.9 °F 33.1 °F 100% 29.53 in 9.0 mi West 18.4 mph - 0.01 in   Overcast
7:53 AM 34.0 °F 22.1 °F 32.0 °F 92% 29.58 in 10.0 mi West 21.9 mph 31.1 mph 0.01 in   Overcast
8:47 AM 33.8 °F 20.5 °F 26.6 °F 75% 29.58 in 10.0 mi WNW 27.6 mph 40.3 mph N/A   Overcast
8:53 AM 33.1 °F 20.3 °F 27.0 °F 78% 29.62 in 10.0 mi WNW 24.2 mph 38.0 mph N/A   Overcast
9:53 AM 26.1 °F 10.1 °F 23.0 °F 88% 29.68 in 2.0 mi West 27.6 mph 34.5 mph N/A   Overcast
9:59 AM 26.1 °F 9.3 °F 21.9 °F 84% 29.64 in 8.0 mi West 31.1 mph 38.0 mph N/A   Overcast
10:53 AM 26.1 °F 9.8 °F 21.9 °F 84% 29.70 in 8.0 mi WNW 28.8 mph 36.8 mph N/A   Overcast
11:53 AM 25.0 °F 7.8 °F 21.0 °F 85% 29.71 in 5.0 mi West 31.1 mph 41.4 mph N/A   Overcast
12:53 PM 25.0 °F 8.6 °F 21.0 °F 85% 29.72 in 4.0 mi WNW 27.6 mph 35.7 mph N/A   Overcast
1:43 PM 24.1 °F 7.4 °F 21.0 °F 88% 29.70 in 1.0 mi WNW 27.6 mph 36.8 mph 0.00 in   Overcast
1:53 PM 24.1 °F 8.0 °F 19.9 °F 84% 29.75 in 1.2 mi WNW 25.3 mph 34.5 mph 0.00 in   Overcast
2:33 PM 23.0 °F 6.6 °F 19.9 °F 88% 29.73 in 2.0 mi WNW 25.3 mph 33.4 mph N/A   Overcast
2:53 PM 23.0 °F 6.3 °F 19.9 °F 88% 29.79 in 1.0 mi WNW 26.5 mph 38.0 mph N/A   Overcast
3:04 PM 23.0 °F 6.6 °F 19.0 °F 85% 29.75 in 2.0 mi WNW 25.3 mph 36.8 mph N/A   Overcast
3:20 PM 23.0 °F 6.3 °F 19.0 °F 85% 29.76 in 3.0 mi WNW 26.5 mph 34.5 mph N/A   Overcast
3:53 PM 21.9 °F 5.1 °F 17.1 °F 82% 29.83 in 10.0 mi WNW 25.3 mph 33.4 mph N/A   Overcast
4:53 PM 21.0 °F 5.7 °F 17.1 °F 85% 29.87 in 7.0 mi WNW 19.6 mph 28.8 mph N/A   Overcast
5:53 PM 19.9 °F 4.8 °F 16.0 °F 85% 29.91 in 5.0 mi WNW 18.4 mph 28.8 mph N/A   Overcast
6:27 PM 19.9 °F 2.8 °F 15.1 °F 81% 29.88 in 7.0 mi NW 24.2 mph 32.2 mph N/A   Overcast
6:53 PM 19.9 °F 4.3 °F 17.1 °F 89% 29.94 in 3.0 mi WNW 19.6 mph - N/A   Overcast
7:41 PM 18.0 °F 0.9 °F 15.1 °F 88% 29.92 in 3.0 mi NW 21.9 mph - N/A   Overcast
7:53 PM 18.0 °F 2.2 °F 14.0 °F 84% 29.96 in 4.0 mi NW 18.4 mph 27.6 mph N/A   Overcast
8:51 PM 17.6 °F 1.7 °F 12.2 °F 79% 29.93 in 10.0 mi NW 18.4 mph - N/A   Overcast
8:53 PM 17.1 °F 1.0 °F 12.0 °F 81% 29.98 in 10.0 mi NW 18.4 mph - N/A   Overcast
9:53 PM 17.1 °F 0.1 °F 10.0 °F 74% 30.00 in 10.0 mi NW 20.7 mph - N/A   Mostly Cloudy
10:53 PM 16.0 °F -0.4 °F 8.1 °F 71% 30.01 in 10.0 mi NW 18.4 mph - N/A   Overcast
11:53 PM 14.0 °F -3.0 °F 7.0 °F 74% 30.02 in 10.0 mi NNW 18.4 mph - N/A   Partly Cloudy